< < Back
Terminal Aerodrome Forecast


Current Version              Previous Versions:   1  2  3  4  5  6  7  8  9  

Terminal Aerodrome Forecast

795
FTUS42 KJAX 241300 AAA
TAFJAX
TAF AMD
KJAX 241302Z 2413/2512 VRB03KT 5SM BR BKN070
     FM241400 VRB05KT P6SM SCT070
     FM241900 14010KT P6SM BKN050
     FM250200 19005KT P6SM SCT060=

Latest METAR

865
SAUS80 KWBC 250900 RRA
MTRJAX
METAR KJAX 250856Z 27003KT 7SM SCT050 17/17 A2995 RMK AO2 SLP141
T01720172 53001


USA.gov is the U.S. government's official web portal to all federal, state and local government web resources and services.